Dewpoint
39 34 32 35 38 35 33 33 34 37 42 40 39 40 40 37 36 37 37 38 38 40 41 42 41 57 61 63 63 63 63 63 63 62 62 61 61 60 60 61 61 61 61 60
34 31 36 37 38 34 32 30 32 37 41 38 39 38 38 37 36 37 36 37 38 38 39 41 40 40 60 61 62 63 63 63 62 62 62 61 60 61 60 61 62 62 62 62
30 31 37 37 35 34 32 28 30 31 37 39 39 37 38 38 38 38 38 38 39 39 38 39 40 38 44 58 61 62 63 63 63 63 63 63 62 63 62 62 62 62 63 64
34 37 35 36 33 32 31 32 34 33 34 28 38 27 32 36 37 38 38 39 38 38 39 39 40 39 38 45 57 62 63 63 63 63 63 62 61 60 62 62 60 54 53 53
33 36 35 34 34 33 30 33 36 37 35 34 35 31 24 34 34 34 36 38 38 38 38 37 40 39 37 37 41 57 62 63 63 64 63 63 61 61 59 57 55 55 54 53
37 41 37 38 36 35 36 35 35 35 34 28 31 31 20 28 33 35 37 38 38 38 37 36 40 39 39 42 44 53 59 59 59 61 62 62 61 59 55 54 53 52 50 50
35 35 40 40 33 36 35 31 27 25 26 23 29 29 23 24 26 31 32 29 29 30 33 36 39 40 41 41 44 48 53 55 55 57 58 61 58 55 54 52 51 48 47 48
29 28 36 38 35 34 30 27 25 19 20 21 23 24 20 23 23 24 24 25 27 28 29 35 40 40 42 43 43 44 46 47 48 52 52 53 54 51 50 48 47 46 45 47
29 30 38 38 36 32 28 25 27 22 22 20 20 21 21 21 25 27 28 28 29 29 29 29 35 40 42 43 44 44 44 44 44 44 46 47 49 49 47 46 46 46 47 47
32 29 36 36 34 31 28 27 23 21 16 14 20 18 19 20 24 26 28 29 30 31 32 32 31 34 43 44 45 44 43 43 43 44 44 44 44 45 44 44 44 45 46 45
33 30 31 32 34 32 27 25 27 25 24 17 15 14 18 22 26 26 28 29 31 31 32 34 34 35 38 43 45 45 43 42 43 43 42 42 42 42 42 42 43 44 44 44
33 31 29 31 34 36 34 29 27 19 19 22 17 17 23 25 27 28 27 29 31 33 34 35 36 37 39 41 43 44 43 42 42 42 41 41 41 41 41 41 41 42 41 42
31 28 24 25 28 32 31 31 29 28 27 22 14 18 23 25 28 30 31 32 33 32 32 33 34 36 38 39 41 42 42 42 42 41 41 41 40 40 40 40 40 40 40 40
33 29 24 21 24 30 29 30 30 27 24 24 24 20 27 29 31 32 32 33 33 34 34 34 33 34 35 37 40 42 41 41 41 40 40 40 40 39 39 39 39 39 39 39
32 26 27 28 29 30 28 29 29 27 26 23 22 23 27 30 32 32 34 35 35 35 35 36 35 35 35 36 37 40 42 41 40 40 39 39 39 39 39 39 39 39 39 38
32 28 26 25 26 26 27 28 28 29 28 27 27 27 31 32 32 33 31 30 29 29 31 32 34 36 36 36 36 38 40 41 40 39 39 39 38 38 39 39 38 38 37 37
30 28 25 24 23 22 21 23 26 28 29 28 27 29 31 29 27 31 28 28 28 29 29 30 31 33 36 37 37 37 39 41 40 39 39 38 38 38 38 38 38 37 36 36
30 28 26 22 19 17 20 25 27 28 28 28 27 26 24 25 25 29 30 30 30 30 31 32 32 33 34 38 38 38 38 40 40 39 39 38 38 38 38 38 37 37 36 36
32 29 25 21 18 20 22 26 26 26 25 25 25 26 27 27 28 28 30 32 32 32 33 33 34 34 35 38 37 38 38 40 40 39 39 38 38 38 38 37 37 37 37 36
28 28 23 23 19 17 22 26 28 28 24 27 27 27 27 27 23 24 30 32 32 33 33 34 35 34 35 37 38 39 40 40 40 39 39 38 38 38 37 37 36 37 37 37
25 25 23 23 21 22 25 25 28 20 20 28 29 29 29 27 27 29 31 31 32 32 33 34 34 35 36 38 38 38 39 40 40 39 39 38 38 37 37 36 37 37 37 36
24 23 23 24 23 20 24 26 26 27 30 30 29 30 30 30 30 30 30 30 30 31 32 33 34 35 38 38 37 37 37 39 39 39 38 37 37 37 37 36 36 36 36 35
24 25 24 25 24 25 29 28 30 30 29 29 29 31 31 30 30 31 32 32 31 32 33 34 34 35 37 38 37 36 37 38 38 38 37 37 37 37 37 36 36 35 35 34
27 26 25 25 26 28 29 30 30 30 30 30 31 30 31 31 32 32 32 32 33 34 35 36 36 36 36 37 37 37 37 38 38 37 36 36 36 36 36 36 36 35 34 33
27 25 23 24 27 29 30 30 30 30 30 29 30 30 31 31 30 30 31 31 32 32 32 34 35 35 35 36 37 38 36 37 37 36 36 36 36 37 36 35 35 35 35 34
23 23 22 21 27 26 29 30 29 27 28 29 29 29 29 30 30 30 29 30 31 31 31 32 32 33 34 35 36 38 38 36 36 36 36 35 35 36 35 34 34 36 36 35
Wind_Speed
3 4 10 7 13 7 15 12 10 13 12 7 10 12 12 8 6 13 15 18 17 14 13 12 14 13 16 14 16 19 17 16 12 11 14 13 15 12 10 11 14 18 16 17
6 5 5 8 16 18 13 16 9 10 16 9 9 17 18 14 10 9 18 17 20 19 14 15 16 13 16 21 21 19 21 18 20 15 11 9 11 7 10 12 11 13 13 11
8 5 8 4 3 18 15 18 17 14 10 3 9 9 22 13 11 14 12 13 13 19 21 20 22 19 16 18 21 23 22 22 18 15 8 4 5 3 6 6 6 6 10 12
3 10 11 4 4 9 12 9 10 23 16 11 5 2 15 23 22 14 19 16 14 14 15 18 21 24 20 22 16 15 18 22 19 18 18 16 16 15 11 9 8 8 5 6
3 14 11 7 4 6 3 11 11 18 11 4 5 3 3 1 19 25 23 19 19 20 17 17 22 25 23 18 15 10 11 15 15 16 19 19 15 14 6 4 12 8 6 3
8 4 4 2 7 4 10 14 16 8 5 4 11 7 4 3 11 13 19 16 18 19 15 14 13 13 12 10 11 7 9 10 9 10 10 15 17 15 12 11 12 12 11 6
5 4 5 2 9 5 3 16 5 3 3 3 6 8 7 6 3 5 8 5 3 2 4 9 8 14 14 15 14 11 13 11 8 9 12 15 15 15 14 14 11 11 11 7
3 5 3 6 4 9 13 5 7 5 8 8 5 7 2 4 10 13 11 9 10 11 9 9 5 9 8 10 14 15 14 11 9 10 11 8 11 14 14 13 10 9 7 8
5 5 5 1 4 2 5 7 3 8 4 6 4 2 3 8 12 14 13 14 11 10 10 10 10 3 4 3 4 5 6 6 8 9 8 10 12 15 17 16 13 12 9 9
3 8 6 6 2 5 5 6 3 4 4 4 3 2 4 9 10 10 12 11 9 8 10 9 8 8 3 2 5 7 7 9 9 8 6 7 6 5 7 18 17 15 13 11
4 5 2 3 7 4 5 3 6 5 2 2 5 3 3 15 13 13 8 6 8 9 9 8 6 5 5 1 4 7 7 7 8 10 9 7 5 2 2 3 3 9 8 8
4 5 6 3 5 3 1 2 3 3 2 3 1 3 3 12 6 10 9 10 6 9 11 12 13 13 8 6 5 6 7 10 11 10 10 10 8 7 6 5 5 6 7 4
1 4 7 3 4 1 3 3 4 7 4 1 2 4 9 11 14 11 12 11 11 12 17 18 17 16 17 14 10 9 9 11 11 11 11 10 9 9 9 8 8 7 7 7
3 4 4 10 4 3 5 7 3 5 4 5 4 8 9 8 10 11 11 9 10 12 13 14 16 16 18 17 15 14 13 10 10 11 12 13 14 13 11 9 10 10 8 8
3 5 4 5 5 2 3 9 11 11 7 7 6 5 5 5 8 8 6 9 13 16 17 17 18 18 17 20 19 16 17 15 12 13 14 15 13 11 10 9 9 8 8 7
4 3 3 3 6 6 1 0 6 8 5 5 6 3 5 4 6 7 9 12 14 15 15 17 17 18 19 19 19 19 18 19 15 17 18 14 12 11 10 10 11 9 7 5
3 5 2 2 5 4 3 4 3 0 3 3 13 4 4 2 7 4 9 12 12 15 16 18 19 18 19 20 19 21 20 16 20 20 18 16 15 14 13 12 11 9 8 5
5 5 3 3 4 2 2 4 2 13 10 10 12 8 7 6 8 10 10 12 14 17 19 20 20 21 21 20 22 20 18 18 20 20 19 18 17 17 15 14 12 9 7 6
5 5 4 3 3 4 3 1 1 1 2 7 5 6 7 11 2 7 9 9 10 12 15 17 18 21 22 21 22 21 21 16 18 21 22 20 19 18 17 17 14 11 9 8
8 8 4 4 4 8 5 3 3 2 8 2 5 2 6 8 11 4 18 18 18 15 14 18 21 20 19 21 20 21 21 14 21 21 22 18 19 19 19 17 16 10 9 10
4 2 6 5 4 4 5 3 3 4 5 5 2 4 7 6 5 14 14 17 13 15 17 20 20 20 20 20 19 20 17 15 12 9 11 15 17 18 17 16 12 12 11 10
9 9 6 4 3 8 2 2 5 5 4 3 2 4 6 7 11 13 15 16 18 19 20 18 19 19 18 19 18 18 17 13 8 10 13 15 16 14 14 16 12 11 12 13
6 6 6 9 5 2 2 5 5 5 4 2 2 3 7 10 11 12 13 14 15 16 16 16 16 17 16 18 17 16 16 11 8 7 10 12 13 14 15 14 12 11 12 12
2 2 3 5 3 8 9 6 4 3 2 2 2 6 7 10 12 14 14 15 16 16 16 16 17 15 17 17 18 15 14 10 7 10 10 11 14 15 13 12 12 13 13 13
3 6 6 2 5 8 1 2 5 4 1 1 4 5 8 10 12 13 14 16 16 18 17 18 18 18 19 18 17 17 12 8 10 10 11 12 14 14 13 12 13 13 12 15
5 5 7 6 14 4 6 7 6 2 1 3 4 7 7 8 12 14 15 15 16 17 19 17 17 18 20 21 20 17 13 7 10 11 11 12 13 12 12 11 11 15 16 17
Wind_Direction
120 166 186 211 274 179 155 164 144 155 155 134 235 266 225 271 200 223 226 235 237 222 230 229 217 210 192 194 192 202 204 196 191 196 209 209 210 203 209 197 199 203 202 199
134 198 133 266 258 143 115 136 112 107 146 189 191 252 271 271 265 245 231 226 234 240 227 224 233 215 202 193 200 198 204 199 203 200 200 192 198 205 202 205 210 210 199 197
172 204 124 268 234 119 142 160 169 174 168 141 143 239 262 265 254 249 248 232 231 228 228 220 217 221 212 206 201 200 198 201 198 198 177 147 146 152 205 199 178 146 158 152
140 147 156 269 148 137 149 178 159 156 157 188 158 294 227 233 239 235 241 247 250 252 238 225 215 214 215 219 216 211 201 194 198 187 193 199 199 204 213 202 165 141 127 132
152 149 142 207 203 146 132 152 139 128 92 98 171 277 249 240 235 245 245 243 246 253 252 240 219 211 210 215 209 227 216 205 202 197 197 198 204 202 196 173 142 130 92 70
75 47 100 243 134 112 112 99 56 67 74 122 209 199 313 224 217 237 242 255 254 255 265 262 241 201 189 173 174 179 198 212 190 195 201 200 204 187 171 168 172 172 145 147
71 56 257 57 105 89 143 125 107 133 207 145 168 173 261 279 291 229 147 123 102 347 274 240 226 200 193 187 181 183 182 208 203 189 193 191 191 178 178 173 190 174 158 175
98 114 25 3 132 167 159 135 141 131 160 139 157 213 235 59 80 87 87 85 72 68 58 47 260 215 210 201 195 198 197 189 202 210 222 194 180 169 169 174 169 168 172 155
119 64 340 310 22 60 165 114 173 110 3 99 193 178 106 72 91 95 92 80 69 57 52 40 38 235 232 239 229 229 211 193 189 190 183 181 180 175 170 164 156 157 160 170
130 98 9 322 6 36 108 142 147 42 134 158 224 234 157 147 130 105 88 84 76 74 65 51 32 30 11 268 240 228 219 209 185 173 173 165 173 164 182 162 163 171 180 176
112 80 324 353 36 35 39 44 63 97 56 116 132 264 290 174 158 132 89 50 54 40 38 41 30 25 356 353 242 245 239 226 203 185 174 175 173 73 38 21 63 156 162 175
45 93 84 72 316 286 279 108 95 101 127 64 102 329 9 168 129 75 57 48 40 17 358 2 358 346 341 313 279 246 243 240 223 202 191 188 180 164 160 161 175 160 166 183
53 70 99 15 333 11 222 186 115 104 66 301 145 161 56 75 85 80 76 52 48 44 39 29 18 352 327 312 290 270 254 240 227 207 195 185 182 173 182 182 179 175 175 187
107 111 160 180 202 144 188 185 149 131 158 178 219 125 73 99 92 57 41 40 45 36 25 20 13 360 348 335 301 291 273 243 217 206 196 194 191 189 189 190 187 187 180 175
71 112 99 68 52 103 199 186 182 206 180 195 226 142 143 113 76 47 39 42 29 13 7 3 355 348 345 343 328 293 268 260 230 214 208 204 196 192 188 185 180 170 169 179
35 114 104 56 35 48 51 76 219 227 183 222 174 144 150 112 82 53 48 40 24 1 350 348 343 338 331 331 324 312 286 251 229 224 213 204 197 190 187 177 172 170 173 180
74 122 116 143 3 14 318 307 238 116 93 260 240 156 175 56 36 73 53 33 11 352 346 341 335 327 323 314 314 302 288 254 223 221 216 204 195 195 190 182 180 187 193 193
120 98 75 95 39 304 309 347 82 113 59 55 81 76 51 359 325 123 58 24 2 351 342 335 330 325 323 313 309 300 291 258 224 215 213 207 201 199 189 185 188 187 183 204
110 111 100 146 189 287 233 48 147 193 77 23 74 33 10 346 140 202 30 20 352 336 326 317 317 314 311 310 308 308 302 256 221 216 212 207 198 195 190 193 189 187 182 198
91 98 126 175 192 214 191 177 335 128 257 138 121 55 355 3 328 247 349 348 337 329 320 319 317 312 308 312 315 314 309 254 228 220 210 198 193 194 197 195 189 182 186 209
139 165 182 181 222 266 209 255 311 175 253 151 64 15 357 331 272 305 331 326 312 314 321 320 315 310 302 315 319 316 319 279 252 219 193 196 195 195 194 190 184 184 190 196
177 174 187 189 223 257 106 110 182 163 93 101 351 328 312 303 305 301 313 318 321 318 318 317 311 309 316 321 324 311 313 307 255 205 200 197 192 186 184 187 189 191 192 200
198 196 188 194 216 100 10 135 127 138 137 218 272 267 293 297 296 299 301 302 301 303 308 313 313 313 324 326 328 308 302 306 271 227 210 200 189 185 184 188 191 193 199 201
216 156 159 161 148 133 117 102 98 104 149 178 275 303 304 300 306 308 308 308 310 308 311 319 317 318 320 324 327 321 297 291 254 240 222 203 193 190 190 194 191 199 204 205
196 158 153 110 102 118 166 141 155 142 147 320 314 308 309 310 309 310 313 311 317 320 317 322 315 316 314 319 319 321 310 276 240 232 227 214 202 197 202 204 202 210 216 210
193 179 184 226 175 148 164 172 160 133 233 258 286 299 294 295 300 307 306 309 310 315 319 317 318 317 315 316 314 315 316 277 245 236 228 220 214 212 210 213 223 225 226 229